Regional Weather Roundup
Issued by NWS

Home | Current Version | Previous Version | Graphics & Text | Print | Product List | Glossary On
Versions: 1 2 3 4 5 6 7 8 9 10 11 12 13 14 15 16 17 18 19 20 21 22 23 24 25 26 27 28 29 30 31 32 33 34 35 36 37 38 39 40 41 42 43 44 45 46 47 48 49 50
000
ASUS43 KLSX 040307
RWRMO

WEATHER SUMMARY FOR MISSOURI
NATIONAL WEATHER SERVICE SPRINGFIELD MO
900 PM CST SAT DEC 03 2016

NOTE: "FAIR" INDICATES FEW OR NO CLOUDS BELOW 12,000 FEET WITH NO
       SIGNIFICANT WEATHER AND/OR OBSTRUCTIONS TO VISIBILITY.
       CURRENT SKY AND/OR WEATHER CONDITIONS ARE NOT AVAILABLE FOR
       CHILLICOTHE AND FARMINGTON.

MOZ001>031-035>038-043-044-053-054-040400-
...NORTHERN AND WESTERN MISSOURI...

CITY           SKY/WX    TMP DP  RH WIND       PRES   REMARKS
KANSAS CTY INT LGT RAIN  44  31  60 SE8       30.11F
KANSAS C DTWN  CLOUDY    48  32  53 S8        30.12S
LEE`S SUMMIT   CLOUDY    45  33  63 SE8       30.13S
ST JOSEPH      LGT RAIN  41  35  79 SE3       30.12F
CHILLICOTHE      N/A     43  33  68 SE8       30.16F
KIRKSVILLE     MOCLDY    39  33  79 SE13      30.17F

$$
MOZ066>068-077>081-088>096-101>105-040400-
...SOUTHWEST MISSOURI...

CITY           SKY/WX    TMP DP  RH WIND       PRES   REMARKS
SPRINGFIELD    LGT RAIN  40  35  83 E12       30.12S
JOPLIN         CLOUDY    41  38  89 E6        30.11F
BRANSON        CLOUDY    37  37 100 SE14G20   30.11F FOG     WCI  29

$$
MOZ032>034-039>042-045>050-055>058-069>072-040400-
...CENTRAL MISSOURI...

CITY           SKY/WX    TMP DP  RH WIND       PRES   REMARKS
COLUMBIA       CLOUDY    41  32  70 SE12      30.19R
JEFFERSON CITY CLOUDY    43  31  62 E7        30.21R
ROLLA          CLOUDY    41  31  67 SE10      30.18S
SEDALIA        CLOUDY    44  32  62 SE9       30.17R
WHITEMAN AFB   CLOUDY    43  35  72 S6        30.14S
WARRENSBURG    DRIZZLE   43  34  70 SE7       30.15S
OSAGE BEACH    LGT RAIN  42  32  67 SE6       30.19S

$$
MOZ051-052-059>065-040400-
...EAST CENTRAL MISSOURI...

CITY           SKY/WX    TMP DP  RH WIND       PRES   REMARKS
ST LOUIS INTL  CLOUDY    42  32  67 E8        30.24F
SPIRIT OF STL  CLOUDY    42  33  70 SE5       30.24S
ST CHARLES     CLOUDY    40  35  83 E8        30.24F

$$
MOZ072>076-082>087-097>100-106>115-040400-
...SOUTH CENTRAL AND SOUTHEAST MISSOURI...

CITY           SKY/WX    TMP DP  RH WIND       PRES   REMARKS
CAPE GIRARDEAU LGT RAIN  40  33  76 E8        30.24F
FARMINGTON     CLOUDY    40  32  73 SE5       30.22F
POPLAR BLUFF   LGT RAIN  40  38  93 E5        30.22F
WEST PLAINS    CLOUDY    37  36  96 E7        30.17F FOG

$$



USA.gov is the U.S. government's official web portal to all federal, state and local government web resources and services.